Oelwein, IA

8:40 PM CDT on August 20, 2019 (GMT -0500)
Oelwein Municipal

Weather History for KOLZ - July, 2019

Change the Weather History Date:

Friday, July 19, 2019

  Actual Average Record
Temperature  
Mean Temperature 84 °F -  
Max Temperature 91 °F 82 °F 95 °F (1954)
Min Temperature 77 °F 63 °F 51 °F (1951)
Cooling Degree Days 19    
Growing Degree Days 34 (Base 50)    
Moisture  
Dew Point 81 °F    
Average Humidity 90    
Maximum Humidity 100    
Minimum Humidity 79    
Precipitation  
Precipitation 0.00 in - - ()
Sea Level Pressure  
Sea Level Pressure 29.76 in    
Wind  
Wind Speed 12 mph (SSW)    
Max Wind Speed 21 mph    
Max Gust Speed 28 mph    
Visibility 10 miles    
Events      
Averages and records for this station are not official NWS values.
T = Trace of Precipitation, MM = Missing Value Source: NWS Daily Summary

Daily Weather History Graph

Daily Weather History Graph

Search for Another Location

Airport or City:

Astronomy

Jul. 19, 2019 Rise Set
Actual Time 5:46 AM CDT 8:41 PM CDT
Civil Twilight 5:13 AM CDT 9:14 PM CDT
Nautical Twilight 4:30 AM CDT 9:56 PM CDT
Astronomical Twilight 3:41 AM CDT 10:46 PM CDT
Moon 10:36 PM CDT (7/19) 8:15 AM CDT (7/19)
Length of Visible Light 16h 01m
Length of Day
14h 54m
Waning Gibbous, 93% of the Moon is Illuminated
Jul 19
Waning Gibbous
Jul 24
Last Quarter
Jul 31
New
Aug 7
First Quarter
Aug 15
Full

Hourly Weather History & Observations

Time (CDT) Temp. Heat Index Dew Point Humidity Pressure Visibility Wind Dir Wind Speed Gust Speed Precip Events Conditions
12:15 AM 82.4 °F 94.0 °F 80.6 °F 94% 29.72 in 10.0 mi SSW 13.8 mph - N/A   Clear
12:35 AM 82.4 °F 94.0 °F 80.6 °F 94% 29.72 in 10.0 mi SSW 13.8 mph - N/A   Clear
12:55 AM 82.4 °F 94.0 °F 80.6 °F 94% 29.73 in 10.0 mi SSW 11.5 mph 18.4 mph N/A   Clear
1:15 AM 82.4 °F 94.0 °F 80.6 °F 94% 29.72 in 10.0 mi SSW 13.8 mph - N/A   Clear
1:35 AM 80.6 °F 89.3 °F 80.6 °F 100% 29.72 in 10.0 mi South 11.5 mph - N/A   Scattered Clouds
1:55 AM 80.6 °F 89.3 °F 80.6 °F 100% 29.72 in 10.0 mi SSW 12.7 mph - N/A   Overcast
2:15 AM 80.6 °F 88.1 °F 78.8 °F 94% 29.72 in 10.0 mi South 11.5 mph - N/A   Mostly Cloudy
2:35 AM 80.6 °F 88.1 °F 78.8 °F 94% 29.72 in 10.0 mi SSW 11.5 mph - N/A   Mostly Cloudy
2:55 AM 80.6 °F 88.1 °F 78.8 °F 94% 29.73 in 10.0 mi SSW 10.4 mph 16.1 mph N/A   Mostly Cloudy
3:15 AM 80.6 °F 88.1 °F 78.8 °F 94% 29.73 in 10.0 mi SSW 10.4 mph - N/A   Overcast
3:35 AM 78.8 °F - 78.8 °F 100% 29.73 in 10.0 mi SW 10.4 mph - N/A   Mostly Cloudy
3:55 AM 78.8 °F - 78.8 °F 100% 29.74 in 10.0 mi SSW 6.9 mph - N/A   Scattered Clouds
4:15 AM 78.8 °F - 78.8 °F 100% 29.74 in 10.0 mi SSW 10.4 mph - N/A   Overcast
4:35 AM 78.8 °F - 78.8 °F 100% 29.75 in 10.0 mi SSW 6.9 mph - N/A   Partly Cloudy
4:55 AM 77.0 °F - 77.0 °F 100% 29.75 in 10.0 mi SSW 9.2 mph - N/A   Clear
5:15 AM 77.0 °F - 77.0 °F 100% 29.76 in 10.0 mi SSW 6.9 mph - N/A   Clear
5:35 AM 77.0 °F - 77.0 °F 100% 29.77 in 10.0 mi South 5.8 mph - N/A   Clear
5:55 AM 77.0 °F - 77.0 °F 100% 29.78 in 10.0 mi SSE 5.8 mph - N/A   Clear
6:15 AM 77.0 °F - 77.0 °F 100% 29.79 in 10.0 mi South 5.8 mph - N/A   Clear
6:35 AM 77.0 °F - 77.0 °F 100% 29.79 in 10.0 mi SSE 6.9 mph - N/A   Clear
6:55 AM 77.0 °F - 77.0 °F 100% 29.80 in 10.0 mi South 5.8 mph - N/A   Clear
7:15 AM 77.0 °F - 77.0 °F 100% 29.80 in 10.0 mi South 6.9 mph - N/A   Clear
7:35 AM - - - N/A% 29.80 in 10.0 mi SSW 8.1 mph - N/A   Clear
7:55 AM 78.8 °F - 78.8 °F 100% 29.80 in 10.0 mi SSW 9.2 mph - N/A   Clear
8:15 AM 80.6 °F 88.1 °F 78.8 °F 94% 29.79 in 10.0 mi SSW 9.2 mph 15.0 mph N/A   Clear
8:35 AM 80.6 °F 88.1 °F 78.8 °F 94% 29.79 in 10.0 mi SW 13.8 mph - N/A   Clear
8:55 AM 82.4 °F 94.0 °F 80.6 °F 94% 29.79 in 10.0 mi WSW 9.2 mph 17.3 mph N/A   Clear
9:15 AM 84.2 °F 98.3 °F 80.6 °F 89% 29.79 in 10.0 mi SW 11.5 mph - N/A   Clear
9:35 AM 84.2 °F 98.3 °F 80.6 °F 89% 29.79 in 10.0 mi WSW 11.5 mph - N/A   Clear
9:55 AM 84.2 °F 98.3 °F 80.6 °F 89% 29.79 in 10.0 mi WSW 10.4 mph - N/A   Clear
10:15 AM 86.0 °F 101.9 °F 80.6 °F 84% 29.80 in 10.0 mi WSW 11.5 mph - N/A   Clear
10:35 AM 86.0 °F 101.9 °F 80.6 °F 84% 29.80 in 10.0 mi WSW 10.4 mph - N/A   Clear
10:55 AM 86.0 °F 101.9 °F 80.6 °F 84% 29.79 in 10.0 mi SW 9.2 mph - N/A   Clear
11:15 AM 87.8 °F 108.2 °F 82.4 °F 84% 29.80 in 10.0 mi SW 10.4 mph - N/A   Clear
11:35 AM 87.8 °F 108.2 °F 82.4 °F 84% 29.79 in 10.0 mi SW 10.4 mph - N/A   Clear
11:55 AM 87.8 °F 108.2 °F 82.4 °F 84% 29.80 in 10.0 mi SSW 10.4 mph - N/A   Clear
12:15 PM 89.6 °F 111.1 °F 82.4 °F 79% 29.80 in 10.0 mi SW 11.5 mph - N/A   Clear
12:35 PM 89.6 °F 111.1 °F 82.4 °F 79% 29.80 in 10.0 mi South 12.7 mph - N/A   Partly Cloudy
12:55 PM 89.6 °F 111.1 °F 82.4 °F 79% 29.80 in 10.0 mi South 10.4 mph 16.1 mph N/A   Partly Cloudy
1:15 PM 89.6 °F 111.1 °F 82.4 °F 79% 29.80 in 10.0 mi South 11.5 mph - N/A   Clear
1:35 PM 89.6 °F 111.1 °F 82.4 °F 79% 29.79 in 10.0 mi SSW 10.4 mph - N/A   Clear
1:55 PM 89.6 °F 111.1 °F 82.4 °F 79% 29.79 in 10.0 mi SSW 13.8 mph - N/A   Clear
2:15 PM 91.4 °F 117.8 °F 84.2 °F 79% 29.78 in 10.0 mi South 11.5 mph - N/A   Clear
2:35 PM 91.4 °F 117.8 °F 84.2 °F 79% 29.77 in 10.0 mi South 13.8 mph 20.7 mph N/A   Clear
2:55 PM 91.4 °F 117.8 °F 84.2 °F 79% 29.77 in 10.0 mi South 15.0 mph - N/A   Clear
3:15 PM 91.4 °F 117.8 °F 84.2 °F 79% 29.77 in 10.0 mi South 13.8 mph 19.6 mph N/A   Clear
3:35 PM 91.4 °F 117.8 °F 84.2 °F 79% 29.76 in 10.0 mi South 13.8 mph 19.6 mph N/A   Clear
3:55 PM 91.4 °F 117.8 °F 84.2 °F 79% 29.75 in 10.0 mi South 15.0 mph 21.9 mph N/A   Clear
4:15 PM 91.4 °F 117.8 °F 84.2 °F 79% 29.75 in 10.0 mi South 18.4 mph 24.2 mph N/A   Clear
4:35 PM 91.4 °F 117.8 °F 84.2 °F 79% 29.74 in 10.0 mi South 16.1 mph 24.2 mph N/A   Clear
4:55 PM 91.4 °F 117.8 °F 84.2 °F 79% 29.74 in 10.0 mi South 17.3 mph - N/A   Clear
5:15 PM 91.4 °F 117.8 °F 84.2 °F 79% 29.73 in 10.0 mi South 17.3 mph 27.6 mph N/A   Clear
5:35 PM 91.4 °F 117.8 °F 84.2 °F 79% 29.72 in 10.0 mi South 19.6 mph - N/A   Clear
5:55 PM 91.4 °F 117.8 °F 84.2 °F 79% 29.72 in 10.0 mi South 17.3 mph 26.5 mph N/A   Clear
6:15 PM 89.6 °F 115.0 °F 84.2 °F 84% 29.71 in 10.0 mi South 19.6 mph - N/A   Clear
6:35 PM 89.6 °F 115.0 °F 84.2 °F 84% 29.71 in 10.0 mi South 20.7 mph - N/A   Clear
6:55 PM 89.6 °F 115.0 °F 84.2 °F 84% 29.69 in 10.0 mi South 17.3 mph 24.2 mph N/A   Clear
7:15 PM 89.6 °F 115.0 °F 84.2 °F 84% 29.70 in 10.0 mi South 17.3 mph 24.2 mph N/A   Clear
7:35 PM 87.8 °F 111.7 °F 84.2 °F 89% 29.72 in 10.0 mi SSW 12.7 mph 19.6 mph N/A   Clear
7:55 PM 87.8 °F 111.7 °F 84.2 °F 89% 29.72 in 10.0 mi South 11.5 mph - N/A   Clear
8:15 PM 86.0 °F 107.7 °F 84.2 °F 94% 29.73 in 10.0 mi South 12.7 mph - N/A   Clear
8:35 PM 86.0 °F 104.7 °F 82.4 °F 89% 29.73 in 10.0 mi South 11.5 mph - N/A   Clear
8:55 PM 84.2 °F 100.6 °F 82.4 °F 94% 29.73 in 10.0 mi South 10.4 mph - N/A   Clear
9:15 PM 84.2 °F 100.6 °F 82.4 °F 94% 29.74 in 10.0 mi South 9.2 mph - N/A   Clear
9:35 PM 84.2 °F 100.6 °F 82.4 °F 94% 29.75 in 10.0 mi South 10.4 mph - N/A   Clear
9:55 PM 84.2 °F 100.6 °F 82.4 °F 94% 29.75 in 10.0 mi South 10.4 mph - N/A   Clear
10:15 PM 84.2 °F 100.6 °F 82.4 °F 94% 29.77 in 10.0 mi SSW 8.1 mph - N/A   Clear
10:35 PM 82.4 °F 94.0 °F 80.6 °F 94% 29.78 in 10.0 mi SSW 9.2 mph - N/A   Clear
10:55 PM 82.4 °F 94.0 °F 80.6 °F 94% 29.78 in 10.0 mi SSW 6.9 mph - N/A   Clear
11:15 PM 80.6 °F 89.3 °F 80.6 °F 100% 29.79 in 10.0 mi SSW 8.1 mph - N/A   Clear
11:35 PM 80.6 °F 89.3 °F 80.6 °F 100% 29.79 in 10.0 mi SSW 9.2 mph - N/A   Clear
11:55 PM 80.6 °F 89.3 °F 80.6 °F 100% 29.80 in 10.0 mi SSW 6.9 mph - N/A   Clear